Location: Berlin
(52.5171°N, 13.3759°E)
Time: 06:15:08
(UTC+01:00)

N. Korean satellite - Visible Passes

Search period start: 20 January 2018 00:00
Search period end: 30 January 2018 00:00
Orbit: 459 x 515 km, 97.2° (Epoch: 19 January)

Date Brightness Start Highest point End Pass type
(mag) Time Alt. Az. Time Alt. Az. Time Alt. Az.
20 Jan 8.4 06:28:41 10° NNE 06:31:52 33° E 06:35:02 10° SSE visible
20 Jan 7.2 17:10:25 10° SE 17:13:40 33° ENE 17:16:53 10° N visible
20 Jan 9.1 18:44:19 10° SSW 18:47:15 23° W 18:50:09 10° NW visible
21 Jan 9.5 06:05:28 10° NE 06:08:03 19° E 06:10:36 10° SE visible
21 Jan 8.0 18:20:03 10° S 18:23:27 40° W 18:26:50 10° NNW visible
22 Jan 10.1 05:43:03 10° ENE 05:44:08 11° E 05:45:13 10° ESE visible
22 Jan 6.4 07:14:39 10° N 07:18:07 70° WNW 07:21:33 10° SSW visible
22 Jan 6.7 17:56:10 10° S 17:59:43 76° WSW 18:03:16 10° NNW visible
23 Jan 7.1 06:51:00 10° NNE 06:54:26 62° ESE 06:57:51 10° S visible
23 Jan 6.5 17:32:34 10° SSE 17:36:04 58° ENE 17:39:33 10° N visible
23 Jan 10.0 19:08:03 10° WSW 19:09:56 14° W 19:11:49 10° WNW visible
24 Jan 8.4 06:27:30 10° NNE 06:30:40 33° E 06:33:50 10° SSE visible
24 Jan 9.1 18:43:10 10° SSW 18:46:04 23° W 18:48:56 10° NW visible
25 Jan 9.5 06:04:17 10° NE 06:06:50 19° E 06:09:22 10° SE visible
25 Jan 8.0 18:18:53 10° S 18:22:15 41° W 18:25:36 10° NNW visible
26 Jan 10.2 05:41:55 10° ENE 05:42:55 11° E 05:43:54 10° ESE visible
26 Jan 6.4 07:13:26 10° N 07:16:54 72° WNW 07:20:21 10° SSW visible
26 Jan 6.7 17:54:59 10° S 17:58:31 77° W 18:02:02 10° NNW visible
27 Jan 7.1 06:49:45 10° NNE 06:53:12 60° ESE 06:56:39 10° S visible
27 Jan 6.5 17:31:24 10° SSE 17:34:51 56° ENE 17:38:17 10° N visible
27 Jan 10.0 19:06:49 10° WSW 19:08:42 14° W 19:10:35 10° WNW visible
28 Jan 8.5 06:26:16 10° NNE 06:29:26 32° E 06:32:36 10° SSE visible
28 Jan 9.1 18:41:56 10° SSW 18:44:49 23° W 18:47:41 10° NW visible
29 Jan 9.6 06:03:04 10° NE 06:05:35 19° E 06:08:07 10° SE visible
29 Jan 7.9 18:17:39 10° S 18:21:00 41° W 18:24:20 10° NNW visible
